Location: Montreal
(45.5087°N, 73.5540°W)
Time: 16:49:36
(UTC-04:00)

X-37B - Pass Details

Date: 30 September 2021
Orbit: 385 x 389 km, 45.0° (Epoch: 13 October)

Event Time Altitude Azimuth Distance (km) Brightness Sun altitude
Exits shadow 05:48:32 21° 268° (W) 942 1.9 -11.8°
Maximum altitude 05:50:27 55° 196° (SSW) 470 0.8 -11.5°
Drops below altitude 10° 05:53:34 10° 117° (ESE) 1,412 4.3 -11.0°
Sets 05:55:39 0° 113° (ESE) 2,265 5.6 -10.6°
